Погода в Манали

Индия     32°05′17″N   77°07′49″E
темп.,
°C
ветер,
м/с
пор.,
м/с
влажн.,
%
обл.,
%
осадки,
мм/ч
давл.,
гПа
погр.,
м
17 мая, пн
пн1723:30+9св55512 0.0 101979
02:30+8св555351 0.0 101977
05:30+8св55495 0.0 101977
08:30+16сз12333 0.0 1016907
11:30+20юз332648 0.0 10142565
14:30+20юз542742 0.1 10122984
17:30+19юз333023 0.2 10112561
20:30+12св445134 0.0 101655
18 мая, вт
вт1823:30+11св454930 0.0 101771
02:30+9св55510 0.0 101677
05:30+9св5644100 0.0 1016104
08:30+16ссз222945 0.0 10141034
11:30+20юз422592 0.0 10112810
14:30+18з333695 0.1 10112317
17:30+10зсз1283100 2.2 1016206
20:30+11с2376100 0.3 101594
19 мая, ср
ср1923:30+10ссв2271100 0.3 101546
02:30+10св226694 0.0 101231
05:30+10св2265100 0.0 101241
08:30+13з1155100 0.1 1012526
11:30+13ююз2262100 0.3 10121136
14:30+10юв1186100 3.4 1012307
17:30+10ссв2387100 9.1 1011131
20:30+9ссв4587100 7.1 1012170
20 мая, чт
чт2023:30+10св2383100 9.1 101072
02:30+9ссв2390100 4.4 100991
05:30+8ссв3492100 15.5 1010160
08:30+9св1290100 5.9 1010122
11:30+9ссв2394100 20.8 1011176
14:30+8с3492100 11.9 1011250
17:30+9всв2390100 23.4 1009185
20:30+8сз1187100 5.1 101125
21 мая, пт
пт2123:30+9св118494 5.2 101115
02:30+9ссв238676 0.4 101161
05:30+8ссв238244 0.5 101150
08:30+14юз21615 0.0 1011707
11:30+16юз33542 0.5 10111389
14:30+15юз3357100 3.2 10121143
17:30+16ссв11490 3.6 1011781
20:30+9св4568100 0.4 101574